カタログに戻る

ARIANE 44P R/B

運用中HEO
NORAD 24892·ROCKET BODY·🇫🇷 France

打ち上げ Aug 8, 1997 から Guiana Space Centre

Loading…

次のパス (今後24時間)

TLE

最新Source: Space-Track

元期: Sep 14, 2026, 17:00 UTC

1 24892U 97040B   26257.70845325  .00014652  00000-0  24622-2 0  9997
2 24892   7.6779 302.3922 6154642 219.4462  73.5135  3.82203000329545

AllMySatでARIANE 44P R/Bをリアルタイム追跡

Download on the App Store